Flag for Chile Weather past 2 weeks in Viña del Mar, Chile

Now
48 °F

Clear.


Feels Like: 48 °F
Forecast: 59 / 70 °F
Wind: 2 mph from North

Location: Pudahuel

Current Time: Sep 1, 2015 at 6:06:19 AM

Latest Report: Sep 1, 2015 at 5:00 AM


Visibility: 10 mi

Pressure: 30.04 "Hg

Humidity: 82%

Dew point: 43 °F

Location of Viña del MarLocation

Historic Weather in Viña del Mar — Graph

°F

Viña del Mar temperature yesterday

Maximum temperature yesterday: 79 °F (at 5:00 PM)
Minimum temperature yesterday: 48 °F (at 5:00 AM)
Average temperature yesterday: 61 °F

Past Weeks' High & Low Weather Summary

 TemperatureHumidityPressure
High79 °F (Aug 31, 5:00 PM)100% (Aug 18, 4:00 AM)32.43 "Hg (Aug 18, 4:00 AM)
Low36 °F (Aug 18, 9:00 AM)25% (Aug 28, 5:00 PM)29.86 "Hg (Aug 24, 4:00 PM)
Average55 °F70%30.04 "Hg
* Reported Aug 17 5:00 AM — Sep 1 5:00 AM, Viña del Mar, Weather by CustomWeather, © 2015

Note: Actual official high and low records may vary slightly from our data, if they occured in-between our weather recording intervals... More about our weather records

Advertising

Viña del Mar weather history for previous 24 hours

 ConditionsComfort  
Time TempWeatherWind HumidityBarometerVisibility
5:00 AM
Tue, Sep 1
48 °FClear.2 mph82%30.04 "Hg10 mi
4:00 AM50 °FClear.1 mph76%30.04 "Hg10 mi
3:00 AM50 °FClear.3 mph76%30.04 "Hg10 mi
2:00 AM52 °FClear.1 mph77%30.04 "Hg10 mi
12:00 AM59 °FPassing clouds.3 mph59%30.04 "HgN/A
11:00 PM
Mon, Aug 31
63 °FPassing clouds.3 mph52%30.04 "HgN/A
10:00 PM64 °FClear.3 mph46%30.04 "Hg10 mi
9:00 PM66 °FClear.7 mph46%30.04 "Hg10 mi
8:00 PM70 °FClear.6 mph50%30.04 "Hg10 mi
6:00 PM79 °FSunny.10 mph30%30.01 "Hg10 mi
5:00 PM79 °FPassing clouds.7 mph30%30.01 "HgN/A
4:00 PM77 °FPassing clouds.7 mph30%30.01 "HgN/A
3:00 PM75 °FPassing clouds.9 mph36%30.01 "HgN/A
2:00 PM72 °FSunny.3 mph44%30.01 "Hg10 mi
1:00 PM68 °FSunny.3 mph49%30.04 "Hg10 mi
12:00 PM64 °FSunny.2 mph56%30.07 "Hg10 mi
11:00 AM59 °FClear.2 mph68%30.07 "Hg5 mi
10:00 AM54 °FClear.7 mph82%30.04 "Hg5 mi
9:00 AM48 °FClear.3 mph94%30.07 "Hg4 mi
8:00 AM48 °FClear.2 mph82%30.07 "Hg4 mi
7:00 AM50 °FClear.2 mph88%30.04 "Hg10 mi
6:00 AM48 °FClear.6 mph94%30.04 "Hg4 mi
Weather by CustomWeather, © 2015

See weather overviewHow to use our weather pages